Regional Weather Roundup
Issued by NWS

Home | Current Version | Previous Version | Text Only | Print | Product List | Glossary Off
Versions: 1 2 3 4 5 6 7 8 9 10 11 12 13 14 15 16 17 18 19 20 21 22 23 24 25 26 27 28 29 30 31 32 33 34 35 36 37 38 39 40 41 42 43 44 45 46 47 48 49

000
ASUS43 KDMX 271207
RWRIA

WEATHER ROUNDUP FOR IOWA
NATIONAL WEATHER SERVICE DES MOINES IA
700 AM CDT THU AUG 27 2015

NOTE: "FAIR" INDICATES FEW OR NO CLOUDS BELOW 12,000 FEET WITH NO
SIGNIFICANT WEATHER AND/OR OBSTRUCTIONS TO VISIBILITY.

* - THESE STATIONS ARE NOT NWS STATIONS...THUS NOT UNDER NWS
QUALITY CONTROL.  THEY ALSO DO NOT REPORT WEATHER SUCH
AS PRECIPITATION OR FOG.

IAZ001>003-012>014-020>022-031>034-043>046-271300-
   NORTHWEST IOWA

CITY           SKY/WX    TMP DP  RH WIND       PRES   REMARKS
CARROLL *      CLEAR     55  55 100 CALM      30.06F
CHEROKEE *     CLOUDY    60  57  88 SW3       30.07R
DENISON *      PTCLDY    63  54  72 S9G16     30.04R
LE MARS *      CLOUDY    63  59  88 SE6       30.05F
ORANGE CITY *  CLEAR     61  57  88 SE5       30.06R
SHELDON *      PTCLDY    61  57  88 SE5       30.05R
SIOUX CITY     CLOUDY    63  58  83 SE8       30.02R
6HR MIN TEMP:  61; 6HR MAX TEMP:  64;

SPENCER        CLOUDY    59  54  83 S6        30.07S
6HR MIN TEMP:  55; 6HR MAX TEMP:  59;

STORM LAKE *   CLEAR     59  54  82 SE7       30.08R
$$

IAZ055>058-069>071-079>083-090>094-271300-
   SOUTHWEST IOWA

CITY           SKY/WX    TMP DP  RH WIND       PRES   REMARKS
ATLANTIC *     PTCLDY    61  55  82 S6        30.07S
AUDUBON *      CLEAR     57  54  88 CALM      30.08F
CLARINDA *     PTCLDY    63  55  77 S6        30.09S
COUNCIL BLFS * MOCLDY    63  57  82 SE9       30.05R
CRESTON *      CLEAR     57  54  88 SE8       30.11S
HARLAN  *      CLEAR     61  61 100 VRB3      30.09S
LAMONI         PTCLDY    60  54  80 SE8       30.11F
6HR MIN TEMP:  58; 6HR MAX TEMP:  63;

RED OAK *      PTCLDY    63  55  77 S6        30.07S
SHENANDOAH *   CLOUDY    64  57  77 VRB5      30.06S
$$

IAZ047>049-059>061-072>074-084-271300-
   CENTRAL IOWA

CITY           SKY/WX    TMP DP  RH WIND       PRES   REMARKS
AMES           MOCLDY    53  52  96 CALM      30.12R
6HR MIN TEMP:  50; 6HR MAX TEMP:  55;

ANKENY *       CLEAR     54  54 100 CALM      30.12S
CHARITON *     CLEAR     55  54  94 S6        30.13R
DES MOINES     CLOUDY    59  53  80 SE8       30.11F
6HR MIN TEMP:  57; 6HR MAX TEMP:  65;

GRINNELL*      PTCLDY    55  52  88 SE6       30.15S
KNOXVILLE *    CLEAR     55  52  88 S7        30.13R
MARSHALLTOWN   MOCLDY    52  50  93 SE6       30.13R
6HR MIN TEMP:  51; 6HR MAX TEMP:  55;

PELLA *        PTCLDY    56  56 100 CALM      30.15R
PERRY *          N/A     54  54 100 SE6       30.09F
$$

IAZ004>006-015-016-023>025-035-036-271300-
   NORTH CENTRAL IOWA

CITY           SKY/WX    TMP DP  RH WIND       PRES   REMARKS
ALGONA *       CLEAR     57  54  88 SE8       30.09F
CLARION *      CLEAR     55  54  94 SE9       30.10F
ESTHERVILLE    CLOUDY    55  53  93 S8        30.07F
6HR MIN TEMP:  53; 6HR MAX TEMP:  56;

FORT DODGE *   CLOUDY    57  52  82 SE3       30.10F
MASON CITY     PTCLDY    52  50  93 SE5       30.13F
6HR MIN TEMP:  48; 6HR MAX TEMP:  54;

FOREST CITY *  CLEAR     52  52 100 CALM      30.12R
IOWA FALLS *     N/A     52  50  93 SE5       30.14S
$$

IAZ007>011-017>019-026>030-037>042-050>054-066-271300-
   NORTHEAST IOWA

CITY           SKY/WX    TMP DP  RH WIND       PRES   REMARKS
CEDAR RAPIDS   CLEAR     54  54 100 SE5       30.15R
6HR MIN TEMP:  50; 6HR MAX TEMP:  56;

CHARLES CITY * CLEAR     52  52 100 SE5       30.15R
CLINTON *      CLEAR     52  50  93 SE3       30.20F
DECORAH *      CLEAR     52  52 100 S3        30.15R
DUBUQUE        CLEAR     55  54  96 S7        30.18S FOG
6HR MIN TEMP:  54; 6HR MAX TEMP:  59;

MONTICELLO *   PTCLDY    54  54 100 SE3       30.16R FOG
OELWEIN *      CLEAR     52  52 100 SE6       30.17R
WATERLOO       PTCLDY    51  49  92 E5        30.14R
6HR MIN TEMP:  49; 6HR MAX TEMP:  54;

$$

IAZ064-065-067-068-078-271300-
   EAST CENTRAL IOWA

CITY           SKY/WX    TMP DP  RH WIND       PRES   REMARKS
DAVENPORT      CLEAR     55  53  93 S5        30.19S
6HR MIN TEMP:  54; 6HR MAX TEMP:  58;

IOWA CITY      CLEAR     55  53  93 VRB3      30.17F
6HR MIN TEMP:  52; 6HR MAX TEMP:  57;

MT. PLEASANT * CLEAR     56  52  89 SE3       30.17S
MUSCATINE *    CLEAR     54  50  87 CALM      30.18F
QUAD CITIES    CLEAR     54  51  90 E3        30.18F
6HR MIN TEMP:  52; 6HR MAX TEMP:  60;

$$

IAZ062-063-075>077-085>089-095>099-271300-
   SOUTHEAST IOWA

CITY           SKY/WX    TMP DP  RH WIND       PRES   REMARKS
BURLINGTON     CLEAR     56  55  97 CALM      30.18R
6HR MIN TEMP:  54; 6HR MAX TEMP:  61;

FAIRFIELD *    CLEAR     57  54  88 S6        30.16R
FORT MADISON * CLEAR     55  55 100 SE5       30.19R
KEOKUK *       CLEAR     57  55  94 SE3       30.17R
OSKALOOSA *      N/A     53  52  95 SE5       30.15R
CENTERVILLE *  CLEAR     54  52  94 SE7       30.15S
OTTUMWA        CLEAR     57  55  93 S7        30.14R
6HR MIN TEMP:  53; 6HR MAX TEMP:  57;

WASHINGTON *     N/A    N/A N/A N/A MISG        N/A
$$

ABBREVIATIONS USED IN REMARKS
   TC - TEMPERATURES IN CELSIUS
  WCI - WIND CHILL INDEX
   HX - HEAT INDEX
  VSB - VISIBILITY
$$



USA.gov is the U.S. government's official web portal to all federal, state and local government web resources and services.